Showing default

COSMOS 252, 3530

Orbit data source: Space-Track

COSMOS 252, 3530 is a payload satellite owned by PKO (CIS) in LEO that was launched on Fri, 01 Nov 1968 UTC via a TSIKLON-2A launch vehicle from the Tyuratam Missile And Space Complex (TTMTR). Payload-class satellites include a variety of spacecraft equipped with specific instruments for various scientific and technological missions. These include communications satellites like Starlink; space stations such as the ISS; scientific satellites like the Hubble; Earth observation satellites from companies like Planet Labs, Umbra, and HawkEye 360; GPS; miniature CubeSats for education and research; and military/defense satellites.

Loading next visibility...
Identifier
3530, 1968-097A
Orbit
LEO
Country
Flag of CISCIS
Related business
Manufacturer
TSKBM/KB1
Mission
Spacecraft
Bus & Motor
IS, Unknown motor
Mass
1,400 kg wet, ~1,400 kg dry
Launch date (UTC)
1968-11-01 (58 years ago)
Launch vehicle
TSIKLON-2A
Launch site
Tyuratam Missile And Space Complex (TTMTR)
Object type
Payload
Rocket body
Debris
Shape & HBR
Unknown
Radar Cross Section
Large (>1 m²)

Expand to show TLE details & history
Last TLE update: 11 hours ago

TLE from 11 hours ago
0 COSMOS 252
1 03530U 68097A   26140.49520492 -.00000060  00000-0  19506-4 0  9991
2 03530  62.3179 220.4414 1008640  49.6220 318.8499 12.88289181702380
Epoch: 2026-05-20T11:53Z
TLE epoch observation values (Epoch: 2026-05-20T11:53:05.705Z)
Latitude
-0.00003°
Longitude
164.01367°
Altitude
764.116 km
Speed
7.733 km/s
True Right ascension
14h 41m 45s
True Declination
0° 00' 00"
Sunlit
Object was in full shadow at epoch
Visualization orbit readout
Latitude
Unknown
Longitude
Unknown
Altitude
Unknown
Speed
Unknown
Apparent Right ascension
Unknown
Apparent Declination
Unknown
Sunlit
N/A
Visualization observer readout
Local Sidereal Time
07:47:45
Azimuth
Unknown
Elevation
Unknown
Doppler factor
Unknown
Orbital elements
Apogee altitude
2,082.484 km
Perigee altitude
532.116 km
Semi-major axis
7,685.437 km
Eccentricity
0.10086
Inclination
62.3179°
RAAN
220.4414°
Arg. of periapsis
49.622°
True anomaly
310.48041°
Mean anomaly
318.8499°
Eccentric anomaly
314.74535°
Mean motion
3.22137 °/min
Orbital period
111.75 mins
BSTAR
0.000019506
Loading maneuver chart data...
Computing Atmospheric mass density...
Loading historical data...
Loading historical data...
Loading historical data...
Loading historical data...
Loading historical data...
Loading historical data...
Loading historical data...

Documentation

Showing up to 5 results
|